Wind_Speed
15 16 16 17 18 18 18 17 17 17 17 16 16 15 14 14 14 14 15 15 14 15 15 15 15 15 15 15 15 15 16 15 15 15 15 16 16 16 15 16 16 17 17
15 16 17 18 18 19 19 19 18 18 18 17 18 17 17 16 15 16 16 16 16 16 16 16 17 17 17 17 16 16 16 16 16 15 15 15 16 16 16 16 17 17 17
16 17 17 18 19 20 19 19 19 19 20 19 18 18 17 18 18 17 18 18 18 18 17 17 18 18 19 18 18 17 17 17 16 16 15 15 15 16 16 17 17 18 18
16 17 18 18 19 20 19 19 20 21 21 21 19 19 19 19 18 18 18 18 19 18 18 18 18 19 19 19 19 19 18 17 17 17 16 17 17 16 16 17 17 18 19
17 18 18 19 19 20 20 20 20 21 21 21 20 19 19 19 18 19 18 18 18 18 18 19 19 19 19 20 20 20 20 20 20 19 19 19 19 19 18 18 18 18 19
18 18 19 20 21 21 21 20 19 20 20 20 20 18 19 19 19 18 18 18 17 18 19 19 19 19 20 20 20 21 21 21 21 21 21 21 21 21 21 20 20 20 20
21 20 21 21 21 21 21 19 19 19 20 20 19 18 18 19 18 18 18 18 18 19 19 20 20 21 21 21 20 21 22 22 22 23 23 24 23 23 23 22 22 22 22
21 21 21 21 21 21 21 20 19 20 20 19 19 19 19 19 19 19 19 19 19 19 20 20 20 20 21 21 21 22 22 22 22 23 24 25 24 24 24 24 24 23 23
20 21 22 22 21 21 21 21 20 20 20 20 19 19 19 18 18 18 19 19 19 19 19 20 20 20 20 20 21 22 22 22 23 24 25 25 25 25 24 24 25 25 26
23 23 24 23 22 22 22 22 21 20 21 20 19 18 18 18 18 18 18 19 19 19 20 20 20 20 21 21 21 21 22 22 23 23 24 24 24 24 24 25 26 26 26
23 23 23 23 23 23 22 21 20 19 19 18 17 18 18 17 18 17 18 18 19 20 20 20 20 20 20 21 21 21 21 22 22 22 22 22 23 24 24 24 25 26 27
23 23 23 24 23 23 22 21 20 18 18 18 17 17 17 18 18 18 17 18 18 19 20 20 21 21 21 21 20 20 20 20 21 22 22 22 23 24 24 25 26 27 27
23 24 25 26 25 23 22 21 20 19 19 19 18 17 18 18 18 19 18 18 18 18 19 20 20 20 20 20 21 21 20 21 21 22 22 23 23 24 25 26 26 26 27
25 25 25 25 25 24 22 20 20 20 20 20 19 19 18 18 19 20 20 19 19 20 20 20 20 20 20 21 21 21 21 21 22 23 23 23 23 24 24 25 25 26 26
26 26 26 26 25 24 22 21 20 20 21 21 21 20 20 19 20 20 20 20 20 21 20 20 21 21 22 22 22 22 22 23 23 23 23 23 23 24 24 24 25 25 26
27 27 25 25 25 24 24 23 21 21 21 21 21 21 21 21 21 21 21 21 21 21 22 22 23 23 23 23 23 24 24 24 24 24 24 24 24 24 24 25 25 26 26
26 26 26 25 25 24 24 25 23 21 21 22 22 22 22 22 22 21 21 21 22 22 22 22 23 24 24 24 24 24 24 24 24 24 25 24 24 25 25 25 26 26 26
25 26 26 25 25 24 23 22 22 22 22 22 22 22 22 22 22 22 22 21 22 23 23 23 24 24 24 25 24 24 24 25 26 26 25 25 26 26 26 27 27 27 26
27 27 27 26 25 25 23 23 24 23 23 22 22 22 22 22 22 23 23 22 23 24 24 24 25 25 25 25 26 26 26 26 26 26 26 26 27 27 27 27 27 27 26
27 27 26 25 25 25 25 24 24 24 23 23 23 23 23 23 23 23 24 24 24 24 25 25 26 26 26 27 27 27 27 27 27 27 27 27 27 27 28 27 27 27 27
26 26 26 24 24 24 24 24 23 23 23 23 23 23 23 24 24 24 24 25 25 25 26 26 27 27 27 28 27 27 26 27 27 28 28 28 28 27 28 28 27 27 28
26 26 25 24 23 23 22 23 23 23 23 23 24 24 23 23 23 24 24 25 26 26 26 27 28 27 27 28 27 27 27 28 28 28 29 29 29 28 28 28 29 29 28
25 26 25 25 25 24 24 23 24 24 24 23 23 23 22 21 22 23 24 25 26 26 26 27 28 28 28 28 28 27 27 28 28 28 28 29 29 29 28 29 29 29 28
24 25 25 25 25 24 23 23 23 23 23 23 23 22 22 22 22 23 24 24 25 26 27 27 28 28 29 28 28 29 29 29 28 28 28 28 29 29 29 30 29 29 29
23 23 24 23 23 23 22 22 22 22 22 23 23 22 22 22 23 23 23 24 24 25 26 26 27 28 28 28 29 29 29 29 29 29 28 28 28 29 29 30 29 29 29
23 22 22 22 23 23 22 22 22 23 23 23 23 22 23 23 24 24 24 24 24 25 26 26 26 26 27 27 28 29 29 29 28 27 27 28 29 29 29 28 28 28 28
Wind_Direction
292 293 292 293 297 300 301 300 297 290 288 289 286 284 278 274 271 269 269 271 271 272 271 272 273 277 278 279 280 281 280 279 277 275 273 267 262 262 261 261 263 265 265
288 295 292 289 293 296 297 297 296 292 287 286 284 280 278 277 272 267 267 268 268 270 269 269 271 273 275 277 280 281 281 279 277 274 272 270 266 263 262 263 264 265 266
290 296 294 292 291 294 295 294 294 293 292 286 285 280 278 278 274 269 267 268 268 268 268 269 270 271 274 276 278 279 279 276 274 273 272 270 266 264 264 265 265 265 264
285 292 293 292 293 295 293 291 290 290 290 289 286 285 280 279 274 271 270 268 267 267 268 269 269 271 272 274 276 275 274 275 274 272 271 270 270 266 266 266 267 268 266
281 286 289 292 292 293 292 290 289 287 288 289 287 282 279 277 274 273 271 270 266 265 268 269 270 271 271 274 274 273 274 275 275 272 271 272 272 269 268 267 267 268 269
277 281 286 291 289 290 290 289 291 289 287 286 284 282 280 279 275 271 271 270 267 267 269 270 272 272 271 273 274 274 274 274 273 272 271 270 270 269 268 266 265 266 268
277 280 283 287 287 288 289 289 291 290 285 284 282 280 279 277 274 270 268 268 269 269 271 274 275 275 272 272 274 273 274 274 273 273 271 270 269 268 266 265 265 266 268
276 279 284 284 285 286 286 288 290 289 286 283 281 279 276 274 271 269 268 268 269 270 270 273 276 276 273 274 275 276 275 274 272 272 271 271 271 269 268 266 266 268 270
280 281 282 281 282 283 283 284 288 288 286 283 281 278 276 274 271 269 268 269 270 270 271 273 275 274 273 275 277 275 274 274 273 273 272 272 271 271 272 271 271 271 272
280 283 283 279 280 280 278 280 283 284 284 283 282 280 276 276 272 269 268 270 270 271 272 271 272 273 273 274 276 277 276 275 275 274 272 271 271 272 274 274 273 274 275
277 279 281 281 282 282 280 279 280 280 282 281 279 278 281 280 274 270 269 269 271 273 273 270 271 273 272 273 275 278 276 274 274 274 273 272 271 273 275 275 275 276 275
279 281 284 283 283 282 283 281 278 280 282 282 280 280 280 281 279 276 273 271 271 272 273 274 272 273 273 273 274 276 276 275 275 276 277 277 276 274 274 275 275 275 275
279 283 283 280 279 280 279 280 278 279 278 277 278 277 278 280 281 278 276 276 274 275 277 278 276 275 274 276 276 276 277 278 279 279 280 279 279 278 277 277 277 277 276
278 282 281 279 279 278 276 276 277 276 274 274 274 273 274 276 279 278 274 273 273 275 278 280 279 279 280 279 280 282 282 282 282 281 281 280 280 280 279 280 279 278 278
274 277 277 278 278 278 276 275 275 275 273 273 273 275 273 274 274 275 272 271 272 274 275 278 280 282 281 280 280 280 280 281 281 281 281 282 283 281 281 281 279 278 278
273 275 277 277 276 276 273 273 274 273 273 273 273 276 276 276 276 275 273 271 273 275 274 276 279 280 280 280 278 277 278 278 278 279 279 281 283 283 282 282 282 280 279
273 275 276 277 276 275 275 276 272 271 271 271 271 273 275 275 275 274 274 274 274 275 276 278 280 280 280 279 278 277 277 277 277 279 280 280 282 283 283 283 283 281 279
274 276 276 276 275 274 275 272 273 273 273 273 271 271 272 272 272 272 272 274 275 274 276 278 280 280 280 280 280 277 279 279 279 279 280 279 282 282 282 283 283 281 281
272 273 273 273 272 270 270 272 273 271 271 271 271 270 270 271 271 271 272 273 275 276 278 279 279 280 280 280 281 281 280 280 280 279 280 281 282 282 282 283 282 280 281
271 272 271 270 269 269 269 270 270 269 269 269 270 270 270 270 270 270 273 274 275 277 279 278 280 280 280 280 281 283 282 282 281 280 281 281 281 281 280 281 281 280 280
268 271 270 269 268 268 267 268 268 267 267 268 269 270 270 270 270 270 273 275 275 276 277 279 280 281 281 282 283 284 283 283 283 281 281 281 280 279 279 279 280 281 281
266 269 271 270 267 268 269 267 266 266 267 268 270 270 269 268 269 270 273 275 275 276 277 279 279 281 283 284 284 283 283 284 284 284 284 283 281 280 279 279 278 279 280
265 266 267 269 266 265 266 265 265 265 266 268 269 270 268 269 270 273 275 275 276 276 278 279 279 280 281 282 282 283 284 285 285 285 285 283 280 279 278 279 278 277 277
266 267 266 267 267 266 263 264 266 265 265 265 268 270 269 274 277 276 278 278 279 279 279 280 280 281 280 281 281 284 285 286 285 285 285 283 279 278 276 277 276 275 275
266 267 267 267 265 266 266 266 267 268 268 269 269 270 270 275 280 284 283 281 281 282 281 281 282 282 282 282 283 285 286 286 286 285 284 283 281 278 279 278 275 275 275
267 268 270 269 268 267 267 266 266 268 268 269 270 272 274 276 278 281 283 283 282 281 282 282 283 284 285 284 285 285 286 287 288 286 284 283 282 280 280 279 278 277 276
Height
5862 5861 5860 5858 5858 5856 5855 5854 5853 5852 5851 5850 5849 5847 5846 5846 5846 5846 5846 5846 5846 5846 5846 5846 5846 5846 5845 5845 5844 5844 5843 5842 5842 5841 5841 5841 5841 5842 5842 5842 5842 5842 5843
5857 5856 5856 5854 5853 5852 5851 5850 5849 5847 5846 5845 5844 5843 5842 5842 5842 5842 5841 5842 5842 5841 5841 5841 5841 5841 5841 5841 5840 5840 5839 5838 5838 5837 5837 5837 5838 5837 5837 5837 5838 5838 5838
5852 5851 5851 5850 5849 5848 5847 5845 5844 5843 5841 5839 5838 5838 5837 5837 5837 5837 5837 5837 5837 5837 5836 5836 5837 5837 5836 5836 5836 5835 5835 5834 5834 5833 5833 5833 5833 5833 5833 5833 5833 5833 5833
5848 5847 5846 5846 5845 5844 5842 5841 5839 5838 5836 5834 5833 5832 5832 5832 5832 5832 5832 5832 5832 5832 5832 5831 5832 5832 5831 5831 5830 5830 5830 5829 5829 5829 5829 5829 5828 5829 5829 5829 5828 5828 5828
5843 5843 5842 5841 5840 5839 5837 5835 5834 5832 5831 5829 5828 5827 5827 5827 5826 5827 5827 5826 5826 5827 5826 5826 5826 5826 5826 5826 5825 5825 5824 5824 5824 5824 5823 5823 5823 5823 5823 5823 5823 5823 5823
5838 5838 5837 5836 5835 5833 5831 5829 5827 5826 5825 5823 5822 5822 5822 5821 5821 5821 5821 5821 5821 5821 5821 5821 5821 5821 5820 5820 5820 5819 5819 5818 5818 5818 5818 5817 5817 5817 5817 5817 5818 5818 5818
5832 5832 5831 5830 5829 5827 5825 5823 5822 5821 5819 5818 5817 5817 5816 5816 5815 5815 5816 5816 5816 5816 5816 5815 5815 5815 5814 5814 5814 5813 5813 5812 5812 5812 5811 5811 5810 5810 5811 5811 5811 5811 5811
5826 5825 5825 5824 5823 5822 5820 5819 5818 5816 5814 5813 5812 5811 5811 5810 5810 5810 5810 5810 5810 5810 5810 5809 5809 5808 5808 5808 5807 5807 5806 5806 5805 5805 5804 5804 5804 5803 5803 5803 5803 5803 5804
5819 5819 5819 5818 5817 5816 5815 5814 5813 5811 5809 5808 5807 5805 5805 5804 5804 5804 5804 5804 5804 5804 5803 5803 5802 5802 5802 5801 5800 5800 5799 5799 5798 5798 5797 5797 5797 5796 5796 5796 5796 5796 5795
5814 5813 5812 5810 5810 5810 5809 5808 5807 5805 5804 5802 5801 5800 5799 5798 5798 5798 5798 5798 5798 5798 5797 5797 5796 5796 5795 5795 5794 5793 5792 5792 5791 5790 5790 5790 5789 5789 5789 5788 5788 5787 5787
5808 5807 5806 5804 5804 5804 5803 5801 5800 5799 5798 5796 5795 5794 5793 5793 5792 5792 5792 5792 5792 5792 5791 5791 5790 5790 5789 5788 5787 5786 5785 5785 5784 5784 5783 5782 5782 5782 5781 5781 5780 5780 5779
5801 5800 5799 5798 5797 5796 5795 5794 5794 5793 5792 5790 5789 5789 5788 5787 5787 5786 5786 5786 5786 5786 5785 5785 5784 5783 5782 5782 5781 5780 5779 5778 5777 5777 5776 5775 5775 5774 5774 5773 5772 5772 5771
5795 5794 5793 5791 5790 5789 5788 5788 5787 5787 5786 5785 5784 5783 5782 5781 5781 5781 5781 5780 5780 5780 5779 5778 5777 5777 5775 5774 5774 5773 5773 5772 5771 5770 5769 5768 5767 5767 5766 5765 5764 5763 5762
5787 5786 5786 5784 5784 5783 5782 5781 5781 5780 5780 5779 5778 5777 5777 5776 5776 5775 5775 5774 5774 5773 5773 5772 5771 5770 5769 5768 5767 5766 5766 5765 5764 5763 5762 5761 5760 5759 5758 5757 5756 5755 5754
5780 5779 5778 5777 5777 5776 5776 5775 5774 5773 5773 5772 5772 5772 5771 5770 5770 5769 5769 5768 5768 5767 5766 5766 5765 5764 5762 5761 5760 5760 5759 5758 5757 5756 5755 5754 5752 5751 5750 5749 5748 5747 5746
5772 5771 5769 5769 5769 5769 5769 5769 5768 5767 5766 5766 5765 5765 5764 5764 5763 5763 5762 5761 5761 5760 5760 5759 5758 5757 5755 5754 5753 5752 5752 5751 5750 5749 5747 5746 5745 5743 5742 5741 5739 5738 5737
5764 5763 5762 5762 5762 5761 5761 5761 5760 5760 5760 5759 5759 5758 5757 5757 5756 5755 5755 5754 5754 5754 5753 5752 5751 5750 5748 5747 5745 5745 5744 5743 5742 5741 5740 5739 5737 5735 5734 5732 5731 5730 5729
5756 5756 5755 5755 5754 5754 5753 5752 5753 5753 5753 5752 5751 5751 5750 5750 5749 5749 5748 5747 5747 5746 5746 5745 5744 5742 5741 5739 5738 5737 5736 5734 5733 5733 5731 5730 5729 5727 5726 5724 5723 5722 5721
5748 5748 5748 5747 5747 5747 5747 5746 5745 5745 5745 5745 5744 5743 5743 5743 5742 5742 5741 5740 5740 5739 5738 5737 5736 5735 5734 5732 5731 5729 5728 5726 5725 5724 5723 5721 5720 5719 5717 5716 5715 5713 5712
5740 5739 5739 5739 5739 5739 5739 5739 5738 5738 5738 5738 5737 5736 5736 5735 5735 5734 5734 5733 5732 5731 5730 5730 5729 5727 5726 5724 5723 5721 5719 5718 5716 5715 5714 5712 5711 5710 5708 5707 5706 5705 5704
5732 5731 5731 5731 5731 5731 5732 5731 5731 5730 5730 5730 5729 5729 5728 5728 5727 5727 5726 5725 5725 5724 5723 5722 5721 5719 5717 5716 5715 5713 5711 5709 5708 5706 5705 5703 5702 5701 5699 5698 5697 5696 5695
5723 5723 5723 5723 5724 5724 5724 5723 5723 5723 5723 5722 5721 5721 5721 5720 5720 5719 5719 5717 5717 5716 5714 5713 5712 5710 5709 5708 5706 5704 5703 5701 5699 5697 5695 5694 5692 5691 5690 5689 5688 5686 5685
5715 5715 5716 5716 5716 5715 5715 5715 5715 5715 5715 5715 5714 5713 5713 5713 5712 5712 5711 5710 5709 5708 5706 5705 5704 5702 5701 5699 5698 5696 5694 5692 5689 5688 5686 5685 5683 5681 5680 5679 5678 5677 5676
5707 5707 5708 5708 5707 5706 5707 5707 5707 5707 5707 5707 5707 5707 5706 5706 5704 5703 5703 5702 5701 5700 5698 5697 5695 5694 5692 5691 5689 5687 5685 5683 5681 5679 5677 5676 5674 5672 5671 5670 5669 5667 5666
5700 5700 5700 5700 5700 5700 5700 5700 5699 5700 5700 5700 5700 5699 5699 5699 5697 5696 5695 5694 5693 5691 5690 5688 5687 5685 5684 5682 5680 5678 5676 5674 5672 5670 5668 5667 5665 5663 5662 5661 5659 5658 5657
5692 5691 5692 5692 5692 5692 5692 5692 5692 5692 5693 5693 5693 5692 5692 5691 5690 5689 5688 5686 5684 5683 5682 5680 5678 5676 5675 5673 5672 5670 5668 5665 5663 5661 5659 5658 5656 5655 5653 5652 5650 5649 5648